�������l�o���
Date,Time,MP-1(��Sv/h),MP-2(��Sv/h),MP-3(��Sv/h),MP-4(��Sv/h),MP-5(��Sv/h),MP-6(��Sv/h),MP-7(��Sv/h),MP-8(��Sv/h),����,����(m/s),���J
2020/01/12,00:00,0.698,1.000,0.663,1.248,0.879,0.403,0.707,0.672,��,7.7,��
2020/01/12,00:10,0.697,0.999,0.665,1.247,0.879,0.405,0.707,0.670,��,7.5,��
2020/01/12,00:20,0.696,0.999,0.665,1.248,0.879,0.404,0.705,0.670,��,8.5,��
2020/01/12,00:30,0.696,1.000,0.663,1.248,0.879,0.402,0.706,0.671,��,7.4,��
2020/01/12,00:40,0.698,0.999,0.665,1.249,0.879,0.405,0.707,0.670,��,7.4,��
2020/01/12,00:50,0.697,0.999,0.665,1.247,0.879,0.404,0.707,0.670,��,7.4,��
2020/01/12,01:00,0.698,0.999,0.666,1.247,0.879,0.404,0.707,0.671,��,6.0,��
2020/01/12,01:10,0.695,1.001,0.665,1.246,0.880,0.403,0.707,0.671,��,5.0,��
2020/01/12,01:20,0.698,0.997,0.666,1.247,0.878,0.404,0.706,0.671,��,7.1,��
2020/01/12,01:30,0.696,0.998,0.665,1.246,0.880,0.404,0.705,0.670,���k��,6.4,��
2020/01/12,01:40,0.695,1.001,0.665,1.250,0.877,0.403,0.705,0.669,���k��,6.3,��
2020/01/12,01:50,0.697,1.000,0.664,1.250,0.879,0.404,0.706,0.667,��,5.5,��
2020/01/12,02:00,0.696,0.998,0.665,1.250,0.878,0.404,0.706,0.670,��,4.1,��
2020/01/12,02:10,0.694,1.000,0.666,1.246,0.879,0.404,0.707,0.669,���k��,3.8,��
2020/01/12,02:20,0.698,1.000,0.665,1.249,0.879,0.403,0.704,0.670,���k��,3.8,��
2020/01/12,02:30,0.697,1.000,0.665,1.250,0.880,0.403,0.705,0.671,���k��,3.6,��
2020/01/12,02:40,0.696,0.998,0.664,1.248,0.878,0.404,0.704,0.671,���k��,3.3,��
2020/01/12,02:50,0.696,1.000,0.665,1.250,0.879,0.403,0.705,0.670,��,4.3,��
2020/01/12,03:00,0.696,1.001,0.665,1.248,0.878,0.404,0.705,0.670,��,5.8,��
2020/01/12,03:10,0.697,1.000,0.664,1.248,0.876,0.403,0.706,0.671,��,5.6,��
2020/01/12,03:20,0.697,1.000,0.664,1.249,0.879,0.404,0.703,0.669,��,7.5,��
2020/01/12,03:30,0.696,1.000,0.666,1.248,0.879,0.402,0.706,0.671,��,6.9,��
2020/01/12,03:40,0.696,1.001,0.664,1.247,0.878,0.403,0.705,0.670,���k��,6.0,��
2020/01/12,03:50,0.698,1.001,0.666,1.248,0.878,0.405,0.707,0.671,�k��,6.3,��
2020/01/12,04:00,0.698,1.001,0.666,1.248,0.877,0.404,0.705,0.671,�k��,6.9,��
2020/01/12,04:10,0.698,1.000,0.664,1.250,0.879,0.402,0.704,0.671,�k��,6.1,��
2020/01/12,04:20,0.696,0.998,0.666,1.250,0.879,0.404,0.706,0.671,�k��,6.6,��
2020/01/12,04:30,0.698,1.001,0.665,1.250,0.880,0.404,0.707,0.670,�k��,7.1,��
2020/01/12,04:40,0.697,0.999,0.667,1.249,0.880,0.404,0.707,0.670,�k��,8.0,��
2020/01/12,04:50,0.697,0.997,0.665,1.249,0.880,0.402,0.706,0.670,�k��,6.0,��
2020/01/12,05:00,0.697,0.998,0.667,1.250,0.881,0.403,0.703,0.670,�k��,6.0,��
2020/01/12,05:10,0.698,0.999,0.666,1.252,0.879,0.404,0.707,0.670,�k�k��,5.6,��
2020/01/12,05:20,0.698,0.999,0.665,1.249,0.879,0.403,0.706,0.672,�k�k��,7.5,��
2020/01/12,05:30,0.697,1.000,0.664,1.250,0.877,0.404,0.705,0.671,�k�k��,8.2,��
2020/01/12,05:40,0.697,1.000,0.665,1.249,0.881,0.403,0.706,0.671,�k�k��,8.2,��
2020/01/12,05:50,0.696,0.998,0.667,1.251,0.878,0.402,0.706,0.670,�k�k��,7.4,��
2020/01/12,06:00,0.697,1.001,0.667,1.249,0.879,0.403,0.706,0.670,�k�k��,8.0,��
2020/01/12,06:10,0.697,0.999,0.667,1.253,0.878,0.404,0.706,0.671,�k��,7.1,��
2020/01/12,06:20,0.697,0.999,0.665,1.251,0.880,0.403,0.706,0.672,�k��,6.9,��
2020/01/12,06:30,0.697,0.999,0.666,1.251,0.881,0.402,0.706,0.670,�k�k��,5.5,��
2020/01/12,06:40,0.695,0.998,0.663,1.248,0.877,0.404,0.707,0.671,�k�k��,3.8,��
2020/01/12,06:50,0.696,1.001,0.665,1.251,0.878,0.402,0.706,0.671,�k�k��,4.2,��
2020/01/12,07:00,0.696,0.998,0.666,1.251,0.879,0.404,0.705,0.672,�k�k��,4.2,��
2020/01/12,07:10,0.697,1.001,0.664,1.251,0.880,0.403,0.704,0.672,�k,4.6,��
2020/01/12,07:20,0.697,1.001,0.667,1.251,0.879,0.403,0.705,0.669,�k,4.7,��
2020/01/12,07:30,0.697,0.999,0.666,1.251,0.880,0.403,0.704,0.670,�k,4.7,��
2020/01/12,07:40,0.698,1.000,0.667,1.251,0.879,0.400,0.704,0.670,�k,4.7,��
2020/01/12,07:50,0.699,0.997,0.665,1.250,0.878,0.403,0.705,0.671,�k,4.2,��
2020/01/12,08:00,0.698,0.998,0.666,1.249,0.879,0.403,0.706,0.670,�k,3.9,��
2020/01/12,08:10,0.696,1.000,0.666,1.251,0.879,0.402,0.706,0.670,�k,3.0,��
2020/01/12,08:20,0.697,1.001,0.664,1.249,0.880,0.402,0.706,0.670,�k�k��,3.4,��
2020/01/12,08:30,0.698,1.001,0.665,1.250,0.877,0.403,0.707,0.669,�k,3.8,��
2020/01/12,08:40,0.699,1.001,0.666,1.250,0.878,0.403,0.706,0.670,�k,2.9,��
2020/01/12,08:50,0.699,1.000,0.664,1.251,0.879,0.403,0.706,0.671,�k,1.9,��
2020/01/12,09:00,0.698,1.001,0.665,1.251,0.878,0.403,0.705,0.671,�k,1.0,��
2020/01/12,09:10,0.698,1.002,0.665,1.252,0.880,0.403,0.707,0.670,�k�k��,0.8,��
2020/01/12,09:20,0.698,1.002,0.667,1.251,0.877,0.403,0.706,0.670,�k�k��,0.8,��
2020/01/12,09:30,0.698,1.002,0.665,1.248,0.880,0.403,0.705,0.670,�k��,1.3,��
2020/01/12,09:40,0.697,1.003,0.666,1.250,0.880,0.402,0.704,0.670,-,CALM,��
2020/01/12,09:50,0.698,1.002,0.665,1.251,0.880,0.404,0.703,0.671,-,CALM,��
2020/01/12,10:00,0.698,1.002,0.667,1.250,0.879,0.403,0.702,0.669,��,0.5,��
2020/01/12,10:10,0.699,1.002,0.665,1.250,0.882,0.402,0.704,0.669,�k��,0.9,��
2020/01/12,10:20,0.699,1.001,0.666,1.253,0.878,0.403,0.702,0.671,���k��,1.2,��
2020/01/12,10:30,0.699,1.002,0.665,1.252,0.880,0.402,0.705,0.672,�k�k��,1.3,��
2020/01/12,10:40,0.699,1.004,0.667,1.250,0.882,0.404,0.702,0.669,���쓌,1.2,��
2020/01/12,10:50,0.701,1.004,0.667,1.250,0.880,0.404,0.703,0.672,-,CALM,��
2020/01/12,11:00,0.701,1.000,0.669,1.251,0.882,0.404,0.703,0.670,��,0.9,��
2020/01/12,11:10,0.700,1.000,0.666,1.251,0.882,0.402,0.703,0.672,��,1.0,��
2020/01/12,11:20,0.700,0.999,0.666,1.249,0.882,0.403,0.702,0.671,���쓌,1.9,��
2020/01/12,11:30,0.701,1.000,0.667,1.251,0.882,0.404,0.703,0.672,���k��,1.1,��
2020/01/12,11:40,0.700,1.002,0.668,1.250,0.883,0.403,0.703,0.670,��,1.5,��
2020/01/12,11:50,0.699,1.000,0.667,1.252,0.884,0.403,0.705,0.671,���k��,1.3,��
2020/01/12,12:00,0.700,1.001,0.666,1.253,0.884,0.402,0.703,0.671,���k��,2.1,��
2020/01/12,12:10,0.699,1.000,0.668,1.254,0.884,0.406,0.704,0.671,���k��,2.4,��
2020/01/12,12:20,0.700,1.002,0.668,1.252,0.884,0.404,0.704,0.670,��,1.8,��
2020/01/12,12:30,0.701,1.002,0.669,1.253,0.881,0.404,0.704,0.672,���쓌,2.2,��
2020/01/12,12:40,0.699,1.003,0.667,1.252,0.880,0.404,0.704,0.670,��,2.2,��
2020/01/12,12:50,0.702,1.001,0.668,1.251,0.884,0.405,0.706,0.669,��,1.7,��
2020/01/12,13:00,0.701,1.002,0.668,1.252,0.883,0.403,0.705,0.671,��,1.8,��
2020/01/12,13:10,0.702,1.007,0.665,1.254,0.882,0.404,0.705,0.670,��,2.6,��
2020/01/12,13:20,0.701,1.003,0.668,1.254,0.882,0.405,0.704,0.669,��,2.1,��
2020/01/12,13:30,0.700,1.004,0.669,1.254,0.883,0.405,0.706,0.669,��,2.0,��
2020/01/12,13:40,0.701,1.007,0.667,1.252,0.884,0.406,0.706,0.671,�k��,1.6,��
2020/01/12,13:50,0.701,1.005,0.670,1.254,0.885,0.405,0.706,0.671,���k��,2.5,��
2020/01/12,14:00,0.702,1.003,0.667,1.254,0.884,0.404,0.706,0.670,���k��,1.8,��
2020/01/12,14:10,0.699,1.003,0.669,1.254,0.886,0.405,0.705,0.672,�k��,1.8,��
2020/01/12,14:20,0.701,1.006,0.669,1.254,0.884,0.405,0.705,0.671,��,1.9,��
2020/01/12,14:30,0.700,1.008,0.669,1.253,0.885,0.405,0.705,0.671,���k��,0.5,��
2020/01/12,14:40,0.701,1.007,0.668,1.255,0.884,0.405,0.707,0.674,��,1.4,��
2020/01/12,14:50,0.701,1.007,0.669,1.254,0.883,0.405,0.705,0.673,��,1.2,��
2020/01/12,15:00,0.700,1.008,0.669,1.252,0.886,0.406,0.706,0.672,���쓌,1.0,��
2020/01/12,15:10,0.700,1.007,0.670,1.253,0.884,0.405,0.703,0.670,�쓌,1.2,��
2020/01/12,15:20,0.699,1.009,0.669,1.254,0.885,0.406,0.705,0.673,��쓌,1.4,��
2020/01/12,15:30,0.702,1.007,0.670,1.255,0.883,0.407,0.706,0.672,�쓌,2.1,��
2020/01/12,15:40,0.701,1.009,0.667,1.253,0.884,0.406,0.706,0.671,��쓌,1.8,��
2020/01/12,15:50,0.702,1.007,0.668,1.254,0.884,0.405,0.707,0.672,��쓌,2.2,��
2020/01/12,16:00,0.702,1.006,0.668,1.256,0.887,0.406,0.707,0.673,��,2.8,��
2020/01/12,16:10,0.702,1.006,0.668,1.252,0.883,0.405,0.707,0.672,��,1.9,��
2020/01/12,16:20,0.700,1.008,0.668,1.251,0.884,0.406,0.706,0.672,��,1.7,��
2020/01/12,16:30,0.700,1.008,0.669,1.255,0.885,0.404,0.707,0.671,��,1.7,��
2020/01/12,16:40,0.701,1.006,0.668,1.252,0.883,0.404,0.706,0.672,��,1.6,��
2020/01/12,16:50,0.700,1.007,0.669,1.254,0.884,0.404,0.707,0.670,��,1.4,��
2020/01/12,17:00,0.699,1.006,0.667,1.255,0.884,0.405,0.708,0.671,��,1.2,��
2020/01/12,17:10,0.699,1.006,0.668,1.254,0.884,0.406,0.707,0.670,��,1.1,��
2020/01/12,17:20,0.698,1.006,0.668,1.254,0.884,0.406,0.707,0.670,��,2.1,��
2020/01/12,17:30,0.700,1.003,0.668,1.253,0.884,0.404,0.708,0.671,��쐼,2.0,��
2020/01/12,17:40,0.697,1.004,0.668,1.254,0.882,0.405,0.707,0.671,�쐼,2.0,��
2020/01/12,17:50,0.698,1.006,0.668,1.251,0.884,0.406,0.707,0.670,�쐼,4.1,��
2020/01/12,18:00,0.699,1.004,0.668,1.250,0.883,0.405,0.706,0.672,�쐼,4.7,��
2020/01/12,18:10,0.700,1.006,0.668,1.255,0.882,0.405,0.708,0.670,�쐼,4.2,��
2020/01/12,18:20,0.700,1.006,0.667,1.251,0.883,0.404,0.706,0.669,�쐼,4.2,��
2020/01/12,18:30,0.700,1.006,0.671,1.253,0.881,0.403,0.707,0.671,�쐼,5.2,��
2020/01/12,18:40,0.699,1.005,0.669,1.253,0.886,0.404,0.706,0.672,�쐼,5.2,��
2020/01/12,18:50,0.700,1.004,0.668,1.252,0.882,0.404,0.706,0.672,�쐼,5.2,��
2020/01/12,19:00,0.698,1.005,0.669,1.254,0.883,0.404,0.706,0.672,�쐼,4.9,��
2020/01/12,19:10,0.700,1.004,0.666,1.252,0.883,0.404,0.708,0.670,�쐼,4.7,��
2020/01/12,19:20,0.700,1.005,0.668,1.254,0.883,0.406,0.706,0.671,�쐼,4.4,��
2020/01/12,19:30,0.701,1.003,0.668,1.256,0.885,0.404,0.708,0.671,��쐼,4.2,��
2020/01/12,19:40,0.699,1.006,0.668,1.250,0.882,0.405,0.707,0.671,��쐼,3.4,��
2020/01/12,19:50,0.697,1.005,0.666,1.252,0.883,0.403,0.706,0.670,��쐼,2.8,��
2020/01/12,20:00,0.699,1.002,0.667,1.250,0.883,0.405,0.707,0.672,�쐼,2.4,��
2020/01/12,20:10,0.700,1.006,0.667,1.252,0.883,0.405,0.704,0.672,��쐼,2.5,��
2020/01/12,20:20,0.699,1.004,0.667,1.256,0.882,0.405,0.707,0.671,�쐼,2.2,��
2020/01/12,20:30,0.699,1.005,0.667,1.256,0.883,0.404,0.706,0.671,�쐼,2.3,��
2020/01/12,20:40,0.698,1.006,0.666,1.255,0.882,0.404,0.705,0.670,�쐼,2.0,��
2020/01/12,20:50,0.698,1.005,0.667,1.252,0.881,0.403,0.706,0.671,�쐼,1.8,��
2020/01/12,21:00,0.698,1.003,0.667,1.253,0.882,0.404,0.705,0.671,�쐼,2.0,��
2020/01/12,21:10,0.698,1.004,0.666,1.252,0.882,0.402,0.705,0.670,���쐼,1.9,��
2020/01/12,21:20,0.698,1.006,0.668,1.251,0.884,0.403,0.707,0.672,���쐼,2.2,��
2020/01/12,21:30,0.698,1.005,0.667,1.252,0.882,0.403,0.707,0.672,���쐼,2.6,��
2020/01/12,21:40,0.698,1.005,0.667,1.253,0.882,0.403,0.706,0.671,���쐼,3.2,��
2020/01/12,21:50,0.698,1.005,0.666,1.254,0.883,0.404,0.706,0.671,���쐼,3.1,��
2020/01/12,22:00,0.699,1.004,0.668,1.254,0.884,0.403,0.704,0.671,��,3.0,��
2020/01/12,22:10,0.697,1.005,0.668,1.254,0.885,0.404,0.707,0.670,��,2.9,��
2020/01/12,22:20,0.700,1.004,0.667,1.255,0.884,0.403,0.705,0.672,���k��,2.5,��
2020/01/12,22:30,0.699,1.006,0.667,1.255,0.883,0.404,0.707,0.672,���k��,2.5,��
2020/01/12,22:40,0.697,1.006,0.665,1.253,0.882,0.406,0.705,0.672,���k��,3.0,��
2020/01/12,22:50,0.699,1.004,0.668,1.254,0.883,0.405,0.705,0.672,�k��,3.2,��
2020/01/12,23:00,0.698,1.003,0.668,1.252,0.882,0.403,0.705,0.670,���k��,3.8,��
2020/01/12,23:10,0.700,1.003,0.668,1.254,0.883,0.403,0.706,0.671,���k��,4.9,��
2020/01/12,23:20,0.699,1.003,0.667,1.252,0.881,0.402,0.708,0.671,�k��,3.9,��
2020/01/12,23:30,0.699,1.006,0.668,1.254,0.885,0.404,0.706,0.671,�k��,3.8,��
2020/01/12,23:40,0.698,1.003,0.670,1.256,0.884,0.404,0.707,0.670,�k��,3.5,��
2020/01/12,23:50,0.700,1.005,0.668,1.254,0.883,0.403,0.705,0.670,���k��,2.7,��
